This demonstration page uses our WeatherBlox Daily Observations layout. Learn more.

Left ArrowRight Arrow

41.86663, -103.66717

Hourly Observations for October 12, 2018

Temp ( °F °C ) Dew Point ( °F °C ) Humidity (%) Winds ( mph kmh ) Pressure ( in mb ) Visibility ( mi km ) Precip ( " mm )
12:53 am 00:53 Cloudy 38 3.3 38 3.3 100 100 SE 6 9 29.94 1014 10 16 0.00 0.03
1:53 am 01:53 Cloudy 38 3.3 38 3.3 100 100 NW 5 7 29.97 1015 10 16 0.00 0.00
2:01 am 02:01 Cloudy 39 3.9 39 3.9 100 100 NW 6 9 30.00 1016 10 16 0.00 0.00
2:35 am 02:35 Cloudy with Light Rain 39 3.9 39 3.9 100 100 WNW 8 13 30.00 1016 10 16 0.00 0.03
2:53 am 02:53 Cloudy with Light Rain 39 3.9 39 3.9 100 100 WNW 13 20 30.01 1016 10 16 0.01 0.25
3:13 am 03:13 Cloudy 39 4 37 3 93 93 NW 9 15 30.03 1017 10 16 0.00 0.00
3:22 am 03:22 Cloudy 37 3 37 3 100 100 NW 8 13 30.06 1018 10 16 0.00 0.00
3:53 am 03:53 Cloudy 38 3.3 37 2.8 97 97 WNW 14 22 30.03 1017 10 16 0.00 0.03
4:11 am 04:11 Cloudy 37 2.8 36 2.2 96 96 NW 15 24 30.09 1019 10 16 0.00 0.00
4:37 am 04:37 Partly Cloudy 35 1.7 35 1.7 100 100 NW 9 15 30.12 1020 10 16 0.00 0.00
4:53 am 04:53 Clear 33 0.6 33 0.6 100 100 WNW 5 7 30.06 1018 10 16 0.00 0.00
5:53 am 05:53 Clear 32 0 32 0 100 100 Calm 30.08 1019 10 16 0.00 0.00
6:53 am 06:53 Clear 29 -1.7 29 -1.7 100 100 Calm 30.10 1019 10 16 0.00 0.00
7:53 am 07:53 Sunny 32 0 32 0 100 100 NNW 3 6 30.09 1019 10 16 0.00 0.00
8:53 am 08:53 Sunny 37 2.8 35 1.7 93 93 WNW 7 11 30.08 1019 10 16 0.00 0.00
9:53 am 09:53 Sunny 43 6.1 35 1.7 74 74 W 8 13 30.06 1018 10 16 0.00 0.00
10:53 am 10:53 Sunny 47 8.3 33 0.6 59 59 WNW 6 9 30.04 1017 10 16 0.00 0.00
11:53 am 11:53 Sunny 52 11.1 32 0 47 47 W 7 11 30.00 1016 10 16 0.00 0.00
12:53 pm 12:53 Sunny 55 12.8 32 0 42 42 W 5 7 29.95 1014 10 16 0.00 0.00
1:53 pm 13:53 Sunny 58 14.4 31 -0.6 36 36 NW 8 13 29.90 1013 10 16 0.00 0.00
2:53 pm 14:53 Sunny 61 16.1 31 -0.6 32 32 W 10 17 29.85 1011 10 16 0.00 0.00
3:53 pm 15:53 Sunny 64 17.8 32 0 30 30 WNW 9 15 29.81 1010 10 16 0.00 0.00
4:53 pm 16:53 Sunny 64 17.8 32 0 30 30 WNW 12 19 29.80 1009 10 16 0.00 0.00
5:53 pm 17:53 Sunny 60 15.6 33 0.6 36 36 WNW 8 13 29.82 1010 10 16 0.00 0.00
6:53 pm 18:53 Clear 50 10 34 1.1 54 54 Calm 29.85 1011 10 16 0.00 0.00
7:53 pm 19:53 Clear 51 10.6 34 1.1 52 52 SW 3 6 29.84 1011 10 16 0.00 0.00
8:53 pm 20:53 Clear 45 7.2 34 1.1 66 66 N 3 6 29.85 1011 10 16 0.00 0.00
9:53 pm 21:53 Clear 45 7.2 33 0.6 63 63 Calm 29.83 1010 10 16 0.00 0.00
10:53 pm 22:53 Clear 39 3.9 32 0 76 76 N 3 6 29.83 1010 10 16 0.00 0.00
11:53 pm 23:53 Clear 38 3.3 32 0 79 79 NNE 5 7 29.81 1009 10 16 0.00 0.00

Powered by AerisWeather